Location: Lourdes
(43.1000°N, 0.0500°W)
Time: 01:18:33
(UTC+00:00)

Cosmos 773 Rocket - Pass Details

Date: 12 April 2021
Orbit: 745 x 777 km, 74.1° (Epoch: 10 May)

Event Time Altitude Azimuth Distance (km) Brightness Sun altitude
Rises 02:09:48 0° 342° (NNW) 3,251 7.7 -30.5°
Reaches altitude 10° 02:12:13 10° 346° (NNW) 2,324 6.9 -30.2°
Enters shadow 02:17:27 62° 67° (ENE) 869 4.3 -29.6°
